Location: *
(37.5724°S, 58.0067°E)
Time: 10:18:12
(UTC+00:00)

USA 229 DEB - Pass Details

Date: 05 December 2021
Orbit: 943 x 1269 km, 63.4° (Epoch: 14 January)

Event Time Altitude Azimuth Distance (km) Brightness Sun altitude
Rises 23:47:36 0° 206° (SSW) 3,919 6.8 -9.4°
Reaches altitude 10° 23:51:02 10° 191° (SSW) 2,899 6.3 -8.9°
Maximum altitude 23:56:15 23° 141° (SE) 2,029 6.3 -8.1°
Drops below altitude 10° 00:01:11 10° 90° (E) 2,736 6.8 -7.3°
Sets 00:04:18 0° 75° (ENE) 3,646 7.1 -6.8°
